Satellite: GO-32
Catalog number: 25397
Epoch time:      08266.27477186
Element set:    0704
Inclination:      098.3561 deg
RA of node:       296.6069 deg
Eccentricity:    0.0001045
Arg of perigee:   002.9348 deg
Mean anomaly:     357.1838 deg
Mean motion:   14.23148501 rev/day
Decay rate:      .00000000 rev/day^2
Epoch rev:           53002
Checksum:              289

Satellite: NO-44
Catalog number: 26931
Epoch time:      08266.46560480
Element set:    0984
Inclination:      067.0527 deg
RA of node:       034.0507 deg
Eccentricity:    0.0007243
Arg of perigee:   263.8510 deg
Mean anomaly:     096.1774 deg
Mean motion:   14.29531953 rev/day
Decay rate:      -2.61e-06 rev/day^2
Epoch rev:           36431
Checksum:              305

Satellite: SO-50
Catalog number: 27607
Epoch time:      08267.62710015
Element set:     705
Inclination:      064.5572 deg
RA of node:       114.6731 deg
Eccentricity:    0.0086001
Arg of perigee:   260.4693 deg
Mean anomaly:     098.6681 deg
Mean motion:   14.71380258 rev/day
Decay rate:      -2.00e-06 rev/day^2
Epoch rev:           30945
Checksum:              292

Satellite: CO-55
Catalog number: 27844
Epoch time:      08267.26811330
Element set:     401
Inclination:      098.7180 deg
RA of node:       274.1839 deg
Eccentricity:    0.0009532
Arg of perigee:   188.6734 deg
Mean anomaly:     171.4303 deg
Mean motion:   14.20597383 rev/day
Decay rate:        3.5e-07 rev/day^2
Epoch rev:           27136
Checksum:              309

Satellite: CO-57
Catalog number: 27848
Epoch time:      08266.99764858
Element set:     352
Inclination:      098.7191 deg
RA of node:       272.9964 deg
Eccentricity:    0.0009279
Arg of perigee:   194.1747 deg
Mean anomaly:     165.9168 deg
Mean motion:   14.20404991 rev/day
Decay rate:     -.00000000 rev/day^2
Epoch rev:           27129
Checksum:              358

Satellite: AO-51
Catalog number: 28375
Epoch time:      08267.60587971
Element set:     205
Inclination:      098.0672 deg
RA of node:       286.6242 deg
Eccentricity:    0.0082899
Arg of perigee:   214.1486 deg
Mean anomaly:     145.4356 deg
Mean motion:   14.40618762 rev/day
Decay rate:       -1.0e-08 rev/day^2
Epoch rev:           22257
Checksum:              327

Satellite: CO-56
Catalog number: 28941
Epoch time:      08267.78017970
Element set:     402
Inclination:      098.1178 deg
RA of node:       032.3583 deg
Eccentricity:    0.0151455
Arg of perigee:   042.0202 deg
Mean anomaly:     319.2567 deg
Mean motion:   15.61634588 rev/day
Decay rate:     2.1474e-04 rev/day^2
Epoch rev:           14540
Checksum:              312

Satellite: CP3
Catalog number: 31128
Epoch time:      08266.84708001
Element set:     438
Inclination:      098.0287 deg
RA of node:       326.1076 deg
Eccentricity:    0.0103594
Arg of perigee:   033.4788 deg
Mean anomaly:     327.2908 deg
Mean motion:   14.51976054 rev/day
Decay rate:       -4.7e-07 rev/day^2
Epoch rev:            7610
Checksum:              306

Satellite: CP4
Catalog number: 31132
Epoch time:      08267.90424745
Element set:     419
Inclination:      098.0333 deg
RA of node:       329.7626 deg
Eccentricity:    0.0085954
Arg of perigee:   022.9993 deg
Mean anomaly:     337.5019 deg
Mean motion:   14.55142917 rev/day
Decay rate:        2.4e-07 rev/day^2
Epoch rev:            7630
Checksum:              311

Satellite: CO-65
Catalog number: 32785
Epoch time:      08267.87121062
Element set:     166
Inclination:      097.9836 deg
RA of node:       327.5002 deg
Eccentricity:    0.0015087
Arg of perigee:   171.3076 deg
Mean anomaly:     188.8396 deg
Mean motion:   14.81393459 rev/day
Decay rate:        2.4e-07 rev/day^2
Epoch rev:            2201
Checksum:              318

/EX
SB KEPS @ AMSAT  $ORB08267.W
Orbital Elements  08267.WEATHER

HR AMSAT ORBITAL ELEMENTS FOR WEATHER SATELLITES
FROM WA5QGD FORT WORTH,TX September 23, 2008
Send Subscribe/unsubscribe to KEPS at 
http://www.amsat.org/mailman/listinfo/keps
BID: ORB08267.W
TO ALL RADIO AMATEURS BT

Satellite: NOAA-10
Catalog number: 16969
Epoch time:      08267.22297529
Element set:     300
Inclination:      098.7186 deg
RA of node:       288.9794 deg
Eccentricity:    0.0011496
Arg of perigee:   255.2606 deg
Mean anomaly:     104.7308 deg
Mean motion:   14.27368504 rev/day
Decay rate:        4.0e-08 rev/day^2
Epoch rev:           14542
Checksum:              324

Satellite: NOAA-11
Catalog number: 19531
Epoch time:      08267.04026506
Element set:     330
Inclination:      098.7956 deg
RA of node:       354.9914 deg
Eccentricity:    0.0011934
Arg of perigee:   146.4067 deg
Mean anomaly:     213.7868 deg
Mean motion:   14.14876403 rev/day
Decay rate:      -2.32e-06 rev/day^2
Epoch rev:            3174
Checksum:              304

Satellite: NOAA-12
Catalog number: 21263
Epoch time:      08267.60615215
Element set:     848
Inclination:      098.7717 deg
RA of node:       269.5711 deg
Eccentricity:    0.0011942
Arg of perigee:   195.9118 deg
Mean anomaly:     164.1688 deg
Mean motion:   14.25546988 rev/day
Decay rate:        1.0e-07 rev/day^2
Epoch rev:           90241
Checksum:              321

